Location: Unspecified
(0.0000°N, 0.0000°E)
Time: 18:38:52
(UTC+00:00)

Vanguard 2 Rocket - Pass Details

Date: 20 January 2020
Orbit: 554 x 3327 km, 32.9° (Epoch: 20 February)

Event Time Altitude Azimuth Distance (km) Brightness Sun altitude
Rises 14:48:06 0° 297° (WNW) 6,421 11.5 46.6°
Reaches altitude 10° 14:51:58 10° 295° (WNW) 5,671 11.4 45.8°
Maximum altitude 15:10:42 66° 216° (SW) 3,520 11.2 41.6°
Drops below altitude 10° 15:29:46 10° 136° (SE) 5,718 10.9 37.4°
Sets 15:33:43 0° 133° (SE) 6,471 11.1 36.5°
